Hourly Data Report for June 16, 2021

VINELAND STATION RCS
ONTARIO
Current Station Operator: ECCC - MSC

43°11'00.000" N
79°24'00.000" W
79.20 m
6139148
71171
XVN

Download Data

Hourly Data (June 2021)
Hourly Data Report for June 16, 2021
TIME
LST
Temp Definition
°C
Dew Point Definition
°C
Rel Hum Definition
%
Precip. Amount Definition
mm

Wind Dir Definition
10's deg

Wind Spd Definition
km/h
Visibility Definition
km
Stn Press Definition
kPa
Hmdx Definition


Wind Chill Definition


Weather Definition


00:00 16.3 7.8 57 0.0 33 15   100.47     LegendNANA
01:00 16.1 8.1 59 0.0 35 15   100.51     LegendNANA
02:00 16.0 6.7 54 0.0 1 21   100.55     LegendNANA
03:00 15.7 6.4 54 0.0 1 21   100.58     LegendNANA
04:00 15.2 7.1 58 0.0 1 21   100.60     LegendNANA
05:00 14.8 6.1 56 0.0 1 21   100.66     LegendNANA
06:00 15.1 6.7 57 0.0 3 13   100.70     LegendNANA
07:00 15.7 7.0 56 0.0 2 16   100.73     LegendNANA
08:00 16.0 6.8 54 0.0 1 12   100.74     LegendNANA
09:00 16.6 6.8 52 0.0 1 11   100.75     LegendNANA
10:00 17.1 7.4 53 0.0 33 10   100.79     LegendNANA
11:00 17.2 3.8 41 0.0 31 9   100.78     LegendNANA
12:00 19.1 6.6 44 0.0 32 9   100.73     LegendNANA
13:00 20.1 4.9 37 0.0 30 11   100.67     LegendNANA
14:00 21.4 4.4 33 0.0 36 9   100.61     LegendNANA
15:00 20.0 3.8 34 0.0 4 9   100.56     LegendNANA
16:00 20.7 4.2 34 0.0 5 11   100.54     LegendNANA
17:00 20.6 5.4 37 0.0 5 9   100.51     LegendNANA
18:00 20.8 2.7 30 0.0 6 6   100.49     LegendNANA
19:00 19.6 6.5 43 0.0 7 6   100.51     LegendNANA
20:00 17.9 4.7 42 0.0 2 6   100.55     LegendNANA
21:00 17.1 5.2 45 0.0 6 5   100.60     LegendNANA
22:00 13.3 7.1 66 0.0 25 2   100.61     LegendNANA
23:00 13.1 7.6 69 0.0 21 5   100.62     LegendNANA

Notes on Data Quality.

Legend

  • E = Estimated
  • M = Missing
  • NA = Not Available*
  • [empty] = Indicates an unobserved value
Date modified: